Weather History for Hof Plauen, Germany

Change the Weather History Date:

Friday, June 14, 2013

  Actual Average Record
Temperature  
Mean Temperature 56 °F -  
Max Temperature 63 °F 67 °F 82 °F (2006)
Min Temperature 48 °F 50 °F 35 °F (1998)
Degree Days  
Heating Degree Days 10    
Growing Degree Days 6 (Base 50)    
Moisture  
Dew Point 46 °F    
Average Humidity 67    
Maximum Humidity 94    
Minimum Humidity 37    
Precipitation  
Precipitation 0.00 in - - ()
Sea Level Pressure  
Sea Level Pressure 30.11 in    
Wind  
Wind Speed 8 mph ()    
Max Wind Speed 18 mph    
Max Gust Speed -    
Visibility 7.1 miles    
Events Rain    
Averages and records for this station are not official NWS values.
T = Trace of Precipitation, MM = Missing Value Source: Averaged Metar Reports

Daily Weather History Graph

Daily Weather History Graph

Search for Another Location

Airport:

Trip Planner

Search our weather history database for the weather conditions in past years. The results will help you decide how hot, cold, wet, or windy it might be!

Date:

Astronomy

Jun. 14, 2013 Rise Set
Actual Time 5:01 AM CEST 9:24 PM CEST
Civil Twilight 4:16 AM CEST 10:09 PM CEST
Nautical Twilight 3:10 AM CEST 11:16 PM CEST
Astronomical Twilight 1:45 AM CEST 12:40 AM CEST
Moon 10:49 AM CEST (6/14) No Moon Set
Length of Visible Light 17h 53m
Length of Day
16h 23m
Waxing Crescent, 28% of the Moon is Illuminated
Jun 14
Waxing Crescent
Jun 16
First Quarter
Jun 23
Full
Jun 30
Last Quarter
Jul 8
New

Hourly Weather History & Observations

Time (CEST) Temp. Dew Point Humidity Pressure Visibility Wind Dir Wind Speed Gust Speed Precip Events Conditions
12:00 AM 67 °F 53 °F 51% 29.88 in 15 mi South 8.9 mph - -   Overcast
12:20 AM 64.4 °F 51.8 °F 64% 29.95 in 6.2 mi South 4.6 mph - N/A   Scattered Clouds
12:50 AM 66.2 °F 53.6 °F 64% 29.98 in 6.2 mi WSW 16.1 mph - N/A   Mostly Cloudy
1:00 AM 66 °F 56 °F 61% 29.92 in 13 mi West 13.4 mph - -   Overcast
1:20 AM 62.6 °F 53.6 °F 72% 30.04 in 6.2 mi West 18.4 mph - N/A Rain Rain
1:50 AM 57.2 °F 53.6 °F 88% 30.04 in 6.2 mi NW 6.9 mph - N/A Rain Light Rain
2:00 AM 57 °F 55 °F 92% 30.01 in 19 mi NNW 4.5 mph - - Rain Rain
2:20 AM 57.2 °F 53.6 °F 88% 30.06 in 6.2 mi SW 3.5 mph - N/A   Overcast
2:50 AM 57.2 °F 53.6 °F 88% 30.06 in 6.2 mi WSW 5.8 mph - N/A Rain Light Rain
3:00 AM 57 °F 55 °F 89% 30.02 in 7 mi West 4.5 mph - - Rain Rain
3:20 AM 55.4 °F 53.6 °F 94% 30.06 in 6.2 mi WSW 6.9 mph - N/A   Scattered Clouds
3:50 AM 55.4 °F 51.8 °F 88% 30.06 in 4.3 mi WSW 8.1 mph - N/A Rain Rain
4:00 AM 55 °F 54 °F 94% 30.05 in 1 mi West 6.7 mph - - Rain Heavy Rain
4:20 AM 53.6 °F 50.0 °F 88% 30.06 in 4.3 mi West 13.8 mph - N/A Rain Heavy Rain
4:50 AM 51.8 °F 50.0 °F 94% 30.09 in 3.7 mi West 16.1 mph - N/A   Heavy Drizzle
5:20 AM 51.8 °F 48.2 °F 88% 30.12 in 6.2 mi WSW 12.7 mph - N/A   Partly Cloudy
5:50 AM 50.0 °F 44.6 °F 82% 30.12 in 6.2 mi West 16.1 mph - N/A   Unknown
6:00 AM 49 °F 46 °F 85% 30.13 in 19 mi West 11.2 mph - - Rain Light Rain
6:20 AM 48.2 °F 44.6 °F 87% 30.12 in 6.2 mi West 11.5 mph - N/A   Partly Cloudy
6:50 AM 48.2 °F 44.6 °F 87% 30.15 in - West 10.4 mph - N/A   Clear
7:00 AM 49 °F 46 °F 86% 30.16 in 17 mi West 8.9 mph - -   Scattered Clouds
7:20 AM 50.0 °F 44.6 °F 82% 30.15 in 6.2 mi West 11.5 mph - N/A   Mostly Cloudy
7:50 AM 50.0 °F 44.6 °F 82% 30.15 in 6.2 mi West 10.4 mph - N/A   Overcast
8:00 AM 50 °F 47 °F 85% 30.17 in 22 mi West 11.2 mph - -   Partly Cloudy
8:20 AM 50.0 °F 44.6 °F 82% 30.18 in 6.2 mi WSW 8.1 mph - N/A   Overcast
8:50 AM 51.8 °F 44.6 °F 76% 30.18 in 6.2 mi West 10.4 mph - N/A   Scattered Clouds
9:00 AM 52 °F 47 °F 76% 30.17 in 22 mi West 8.9 mph - -   Scattered Clouds
9:20 AM 51.8 °F 44.6 °F 76% 30.18 in 6.2 mi WSW 11.5 mph - N/A   Partly Cloudy
9:50 AM 53.6 °F 44.6 °F 72% 30.18 in 6.2 mi WSW 12.7 mph - N/A   Partly Cloudy
10:00 AM 54 °F 45 °F 63% 30.17 in 22 mi WSW 8.9 mph - -   Scattered Clouds
10:20 AM 55.4 °F 44.6 °F 67% 30.18 in - WSW 11.5 mph - N/A   Clear
10:50 AM 55.4 °F 42.8 °F 63% 30.18 in - SW 11.5 mph - N/A   Clear
11:20 AM 57.2 °F 42.8 °F 59% 30.18 in 6.2 mi West 11.5 mph - N/A   Partly Cloudy
11:50 AM 57.2 °F 44.6 °F 63% 30.18 in 6.2 mi West 9.2 mph - N/A   Scattered Clouds
12:00 PM 56 °F 44 °F 55% 30.16 in 34 mi WSW 8.9 mph - -   Partly Cloudy
12:20 PM 57.2 °F 44.6 °F 63% 30.18 in 6.2 mi WSW 9.2 mph - N/A   Scattered Clouds
12:50 PM 55.4 °F 42.8 °F 63% 30.18 in 6.2 mi WSW 10.4 mph - N/A   Scattered Clouds
1:00 PM 56 °F 44 °F 55% 30.16 in 37 mi West 11.2 mph - -   Mostly Cloudy
1:20 PM 57.2 °F 41.0 °F 55% 30.18 in 6.2 mi WNW 4.6 mph - N/A   Scattered Clouds
1:50 PM 60.8 °F 42.8 °F 52% 30.15 in 6.2 mi SW 6.9 mph - N/A   Scattered Clouds
2:00 PM 60 °F 44 °F 45% 30.13 in 37 mi West 6.7 mph - -   Partly Cloudy
2:20 PM 59.0 °F 42.8 °F 55% 30.15 in 6.2 mi WNW 8.1 mph - N/A   Scattered Clouds
2:50 PM 60.8 °F 41.0 °F 48% 30.15 in 6.2 mi WSW 6.9 mph - N/A   Overcast
3:00 PM 60 °F 44 °F 43% 30.12 in 44 mi WSW 6.7 mph - -   Mostly Cloudy
3:20 PM 60.8 °F 41.0 °F 48% 30.15 in 6.2 mi WSW 3.5 mph - N/A   Mostly Cloudy
3:50 PM 62.6 °F 42.8 °F 48% 30.15 in 6.2 mi SE 5.8 mph - N/A   Scattered Clouds
4:00 PM 60 °F 41 °F 37% 30.10 in 44 mi South 4.5 mph - -   Mostly Cloudy
4:20 PM 60.8 °F 41.0 °F 48% 30.12 in 6.2 mi South 4.6 mph - N/A   Scattered Clouds
4:50 PM 62.6 °F 44.6 °F 52% 30.12 in 6.2 mi SSE 3.5 mph - N/A   Scattered Clouds
5:20 PM 62.6 °F 41.0 °F 45% 30.12 in 6.2 mi South 4.6 mph - N/A   Partly Cloudy
5:50 PM 60.8 °F 42.8 °F 52% 30.12 in - South 3.5 mph - N/A   Clear
6:00 PM 61 °F 43 °F 41% 30.09 in 44 mi West 4.5 mph - -   Scattered Clouds
6:20 PM 60.8 °F 41.0 °F 48% 30.12 in - Variable 1.2 mph - N/A   Clear
6:50 PM 60.8 °F 44.6 °F 55% 30.12 in - Variable 1.2 mph - N/A   Clear
7:00 PM 61 °F 44 °F 42% 30.08 in 44 mi North 2.2 mph - -   Scattered Clouds
7:20 PM 60.8 °F 44.6 °F 55% 30.12 in - Variable 2.3 mph - N/A   Clear
7:50 PM 57.2 °F 50.0 °F 77% 30.12 in - NNW 2.3 mph - N/A   Clear
8:00 PM 60 °F 44 °F 45% 30.07 in 37 mi NNE 2.2 mph - -   Scattered Clouds
8:20 PM 57.2 °F 46.4 °F 67% 30.09 in 6.2 mi North 3.5 mph - N/A   Partly Cloudy
8:50 PM 57.2 °F 44.6 °F 63% 30.09 in 6.2 mi NE 4.6 mph - N/A   Scattered Clouds
9:00 PM 58 °F 45 °F 53% 30.06 in 37 mi ENE 4.5 mph - -   Scattered Clouds
9:20 PM 55.4 °F 44.6 °F 67% 30.09 in 6.2 mi NE 6.9 mph - N/A   Scattered Clouds
9:50 PM 55.4 °F 44.6 °F 67% 30.09 in 6.2 mi NNE 5.8 mph - N/A   Overcast
10:00 PM 56 °F 46 °F 61% 30.08 in 22 mi NE 4.5 mph - -   Overcast
10:20 PM 55.4 °F 44.6 °F 67% 30.09 in 6.2 mi ENE 5.8 mph - N/A   Overcast
10:50 PM 53.6 °F 44.6 °F 72% 30.09 in 6.2 mi ENE 4.6 mph - N/A   Scattered Clouds
11:20 PM 50.0 °F 44.6 °F 82% 30.09 in 6.2 mi Calm Calm - N/A   Unknown
11:50 PM 48.2 °F 44.6 °F 87% 30.09 in 6.2 mi Variable 1.2 mph - N/A   Unknown